Date String (YYYY-MM-DD hh:mm:ss) UTC,Instrument flags,Ambient pressure (hPa),Sample flow (lpm),Bypass flow (lpm),Sample temperature (°C),Ambient temperature (°C),ASC tube jacket temperature (°C),LED temperature (°C),Box temperature (°C),Sample RH (%),Span deviation,Mass concentration (μg/m³),Mass concentration (μg/m³),Mass concentration (μg/m³)
DateTimeUTC,F1_M11,P_M11,Q1_M11,Q2_M11,T1_M11,T2_M11,T3_M11,T4_M11,T5_M11,U1_M11,ZSPAN_M11,X0_M11,X2_M11,X1_M11
2023-01-08 07:00:00,,0829.5,5.02,0.00,22.1,20.9,00.0,30.9,23.8,13.1,0002.1,0017.73,0014.04,0013.67
2023-01-08 07:01:00,,0829.5,4.99,0.00,22.0,20.8,00.0,30.9,23.8,13.2,0002.0,0017.52,0013.79,0013.40
2023-01-08 07:02:00,,0829.4,5.01,0.00,22.0,20.7,00.0,30.9,23.8,13.1,0002.0,0017.30,0013.57,0013.17
2023-01-08 07:03:00,,0829.3,4.98,0.00,22.0,20.7,00.0,30.9,23.7,12.9,0001.9,0016.95,0013.27,0012.91
2023-01-08 07:04:00,,0829.2,4.97,0.00,22.0,20.7,00.0,30.9,23.8,12.8,0002.3,0016.59,0012.92,0012.54
2023-01-08 07:05:00,,0829.3,4.99,0.00,22.0,20.7,00.0,30.9,23.8,12.7,0003.1,0016.06,0012.37,0012.00
2023-01-08 07:06:00,,0829.2,4.98,0.00,22.0,20.8,00.0,30.9,23.8,12.7,0003.1,0015.41,0011.61,0011.27
2023-01-08 07:07:00,,0829.2,4.99,0.00,22.0,20.8,00.0,30.9,23.8,12.6,0003.3,0013.90,0010.94,0010.62
2023-01-08 07:08:00,,0829.3,5.05,0.00,22.0,20.7,00.0,30.9,23.8,12.6,0003.1,0012.91,0010.53,0010.21
2023-01-08 07:09:00,,0829.3,4.98,0.00,22.0,20.7,00.0,30.9,23.8,12.6,0002.5,0012.84,0010.39,0010.05
2023-01-08 07:10:00,,0829.2,4.99,0.00,22.0,20.7,00.0,30.9,23.8,12.6,0002.4,0012.75,0010.29,0009.94
2023-01-08 07:11:00,,0829.2,5.01,0.00,22.0,20.7,00.0,30.9,23.8,12.6,0002.5,0012.49,0010.02,0009.67
2023-01-08 07:12:00,,0829.2,5.00,0.00,22.0,20.6,00.0,30.9,23.7,12.6,0003.5,0012.08,0009.66,0009.35
2023-01-08 07:13:00,,0829.2,5.04,0.00,22.0,20.4,00.0,30.9,23.6,13.1,0003.6,0012.32,0009.86,0009.52
2023-01-08 07:14:00,,0829.2,4.99,0.00,22.0,20.3,00.0,30.9,23.6,13.4,0003.2,0012.99,0010.43,0010.05
2023-01-08 07:15:00,,0829.2,4.99,0.00,21.9,20.2,00.0,30.9,23.6,13.4,0002.9,0013.46,0010.88,0010.51
2023-01-08 07:16:00,,0829.1,5.07,0.00,21.9,20.2,00.0,30.9,23.6,13.1,0003.3,0013.66,0011.21,0010.85
2023-01-08 07:17:00,,0829.1,5.02,0.00,22.0,20.8,00.0,30.8,23.7,13.1,0003.5,0013.73,0011.53,0011.18
2023-01-08 07:18:00,,0829.2,4.97,0.00,22.1,21.8,00.0,30.8,23.9,13.4,0003.2,0014.35,0012.07,0011.69
2023-01-08 07:19:00,,0829.3,4.98,0.00,22.2,22.6,00.0,30.9,24.1,13.6,0002.8,0015.01,0012.70,0012.32
2023-01-08 07:20:00,,0829.3,5.03,0.00,22.2,22.3,00.0,30.9,24.1,13.5,0002.8,0016.13,0013.29,0012.93
2023-01-08 07:21:00,,0829.2,5.03,0.00,22.2,21.7,00.0,31.0,24.0,13.3,0002.7,0016.73,0013.80,0013.43
2023-01-08 07:22:00,,0829.2,4.97,0.00,22.2,21.2,00.0,31.0,23.9,13.3,0001.8,0017.27,0014.29,0013.94
2023-01-08 07:23:00,,0829.2,5.00,0.00,22.1,20.9,00.0,31.0,23.8,13.7,0001.2,0018.13,0015.03,0014.65
2023-01-08 07:24:00,,0829.1,5.03,0.00,22.1,20.6,00.0,31.0,23.7,13.6,0000.7,0018.49,0015.27,0014.91
2023-01-08 07:25:00,,0829.1,4.99,0.00,22.0,20.4,00.0,31.0,23.6,14.1,0000.4,0018.70,0015.40,0015.05
2023-01-08 07:26:00,,0829.1,5.00,0.00,22.0,20.2,00.0,31.0,23.5,14.2,0000.1,0019.11,0015.73,0015.36
2023-01-08 07:27:00,,0829.0,4.97,0.00,21.9,20.1,00.0,31.0,23.5,14.2,-000.3,0019.54,0016.11,0015.71
2023-01-08 07:28:00,,0829.1,5.02,0.00,21.9,19.9,00.0,30.9,23.4,14.3,-000.4,0020.10,0016.60,0016.21
2023-01-08 07:29:00,,0829.1,5.00,0.00,21.8,19.8,00.0,30.9,23.3,14.0,-000.3,0020.24,0016.71,0016.30
2023-01-08 07:30:00,,0829.0,5.00,0.00,21.8,19.8,00.0,30.9,23.3,14.0,-000.0,0020.59,0016.73,0016.30
2023-01-08 07:31:00,,0829.0,5.00,0.00,21.7,19.6,00.0,30.8,23.2,14.3,0000.3,0021.04,0016.88,0016.42
2023-01-08 07:32:00,,0829.1,5.00,0.00,21.7,19.5,00.0,30.8,23.1,14.2,-000.1,0021.38,0017.12,0016.66
2023-01-08 07:33:00,,0829.0,5.00,0.00,21.6,19.4,00.0,30.8,23.0,14.3,0000.1,0021.71,0017.33,0016.86
2023-01-08 07:34:00,,0829.1,5.00,0.00,21.6,19.5,00.0,30.7,23.0,14.4,0000.0,0021.93,0017.42,0016.94
2023-01-08 07:35:00,,0829.0,5.01,0.00,21.6,20.8,00.0,30.6,23.3,14.4,0000.1,0022.12,0017.59,0017.09
2023-01-08 07:36:00,,0829.0,4.97,0.00,21.7,21.9,00.0,30.6,23.6,14.3,0000.1,0021.99,0017.58,0017.13
2023-01-08 07:37:00,,0829.1,5.01,0.00,21.9,22.3,00.0,30.7,23.8,14.2,-000.1,0021.91,0017.56,0017.11
2023-01-08 07:38:00,,0829.1,5.00,0.00,21.9,21.6,00.0,30.7,23.7,14.3,-000.3,0022.05,0017.65,0017.20
2023-01-08 07:39:00,,0829.1,5.02,0.00,21.8,21.1,00.0,30.7,23.5,14.3,-000.3,0022.42,0017.65,0017.18
2023-01-08 07:40:00,,0829.0,4.98,0.00,21.8,20.6,00.0,30.7,23.4,14.3,-000.6,0022.78,0017.81,0017.37
2023-01-08 07:41:00,,0828.9,5.00,0.00,21.7,20.3,00.0,30.7,23.3,14.4,-000.8,0022.55,0017.90,0017.49
2023-01-08 07:42:00,,0829.0,4.99,0.00,21.7,20.0,00.0,30.7,23.2,14.6,-001.0,0021.77,0017.95,0017.53
2023-01-08 07:43:00,,0829.0,4.96,0.00,21.6,19.8,00.0,30.7,23.1,14.7,-000.7,0021.72,0017.99,0017.57
2023-01-08 07:44:00,,0829.0,5.05,0.00,21.6,19.6,00.0,30.7,23.0,14.7,-000.5,0021.60,0017.99,0017.57
2023-01-08 07:45:00,,0829.1,4.99,0.00,21.5,19.5,00.0,30.7,23.0,14.2,-000.4,0021.67,0017.71,0017.28
2023-01-08 07:46:00,,0829.1,5.01,0.00,21.5,19.3,00.0,30.6,22.9,13.8,-000.3,0021.30,0017.35,0016.95
2023-01-08 07:47:00,,0829.1,5.00,0.00,21.4,19.2,00.0,30.6,22.8,13.6,0000.0,0021.08,0017.05,0016.63
2023-01-08 07:48:00,,0829.0,4.99,0.00,21.4,19.3,00.0,30.5,22.8,13.5,0000.3,0020.66,0016.68,0016.28
2023-01-08 07:49:00,,0829.0,5.01,0.00,21.4,20.2,00.0,30.5,23.0,13.4,0000.7,0020.18,0016.28,0015.91
2023-01-08 07:50:00,,0829.0,5.00,0.00,21.5,21.5,00.0,30.4,23.3,13.0,0001.0,0019.31,0015.82,0015.47
2023-01-08 07:51:00,,0829.0,4.99,0.00,21.6,22.3,00.0,30.5,23.6,12.6,0001.3,0018.52,0015.28,0014.94
2023-01-08 07:52:00,,0828.9,4.98,0.00,21.7,21.8,00.0,30.5,23.6,12.4,0001.8,0018.00,0014.77,0014.41
2023-01-08 07:53:00,,0829.0,5.01,0.00,21.7,21.3,00.0,30.6,23.4,12.2,0002.1,0017.33,0014.14,0013.80
2023-01-08 07:54:00,,0828.9,5.00,0.00,21.7,20.7,00.0,30.6,23.3,12.4,0002.0,0016.66,0013.51,0013.19
2023-01-08 07:55:00,,0829.1,4.99,0.00,21.6,20.3,00.0,30.6,23.2,12.5,0002.2,0016.16,0012.94,0012.60
2023-01-08 07:56:00,,0829.2,4.99,0.00,21.6,19.9,00.0,30.6,23.1,12.6,0002.6,0015.23,0012.55,0012.22
2023-01-08 07:57:00,,0828.7,4.98,0.00,21.5,19.7,00.0,30.6,23.0,12.7,0002.7,0014.79,0012.23,0011.91
2023-01-08 07:58:00,,0828.7,5.00,0.00,21.5,19.6,00.0,30.5,22.9,12.7,0002.7,0014.43,0011.90,0011.56
2023-01-08 07:59:00,,0828.8,5.00,0.00,21.4,19.5,00.0,30.5,22.9,12.8,0003.2,0014.14,0011.61,0011.25
